This is the latest recevied weather packets stored in our database for station/object KQ7A. If no packets are shown the sender has not sent any weather packets the latest 10 day(s).
| Time | Temp. | Humidity | Pressure | Rain* | Wind** | Luminosity | Snow |
|---|---|---|---|---|---|---|---|
| 1777591317 | 20.56° C | 24% | 1016.7 hPa | 0 mm | - | 526 W/m² | - |
| 1777591013 | 20.56° C | 21% | 1016.8 hPa | 0 mm | - | 546 W/m² | - |
| 1777590708 | 20.56° C | 27% | 1016.7 hPa | 0 mm | - | 549 W/m² | - |
| 1777590405 | 20.56° C | 24% | 1016.9 hPa | 0 mm | - | 557 W/m² | - |
| 1777590102 | 20.56° C | 23% | 1017 hPa | 0 mm | - | 568 W/m² | - |
| 1777589798 | 20.56° C | 23% | 1016.8 hPa | 0 mm | - | 577 W/m² | - |
| 1777589498 | 20.56° C | 24% | 1016.7 hPa | 0 mm | - | 603 W/m² | - |
| 1777589192 | 21.11° C | 28% | 1017.1 hPa | 0 mm | - | 576 W/m² | - |
| 1777588889 | 20.56° C | 26% | 1017.3 hPa | 0 mm | - | 590 W/m² | - |
| 1777588585 | 20.56° C | 25% | 1017.1 hPa | 0 mm | - | 514 W/m² | - |
| 1777588280 | 20.56° C | 25% | 1017.3 hPa | 0 mm | - | 537 W/m² | - |
| 1777587976 | 21.11° C | 23% | 1017.5 hPa | 0 mm | - | 658 W/m² | - |
| 1777587672 | 20.56° C | 23% | 1017.4 hPa | 0 mm | - | 531 W/m² | - |
| 1777587372 | 20.56° C | 22% | 1017.3 hPa | 0 mm | - | 448 W/m² | - |
| 1777587068 | 21.11° C | 24% | 1017.7 hPa | 0 mm | - | 455 W/m² | - |
| 1777586764 | 20° C | 24% | 1017.5 hPa | 0 mm | - | 655 W/m² | - |
| 1777586459 | 20° C | 25% | 1017.8 hPa | 0 mm | - | 625 W/m² | - |
| 1777586155 | 20.56° C | 23% | 1017.6 hPa | 0 mm | - | 596 W/m² | - |
| 1777585853 | 20° C | 24% | 1018.1 hPa | 0 mm | - | 724 W/m² | - |
| 1777585553 | 20.56° C | 25% | 1017.9 hPa | 0 mm | - | 713 W/m² | - |
| 1777585249 | 20° C | 25% | 1018.1 hPa | 0 mm | - | 706 W/m² | - |
| 1777584944 | 20.56° C | 25% | 1017.8 hPa | 0 mm | - | 668 W/m² | - |
| 1777584641 | 20.56° C | 32% | 1018.1 hPa | 0 mm | - | 709 W/m² | - |
| 1777584338 | 20.56° C | 24% | 1018.2 hPa | 0 mm | - | 625 W/m² | - |
| 1777584034 | 20° C | 25% | 1018.1 hPa | 0 mm | - | 699 W/m² | - |
* Rain latest hour (hover to see other rain measurements)
** Current wind speed in m/s (hover to see current wind gust speed)